Theta_e
346 346 346 346 346 347 348 347 348 349 351 353 353 354 353 353 351 351 353 351 346 346 349 352 351 350 349 348 347 350 351 350 351 350 352 351 345 343 343 343 344 343 342 341 341 344 346 346 342 345 349 348 350 354 354 350 347 351 350 350 355 353 347 347 346 346 342 340 342 340 343 344 342 344 345 345 345 344 344 343 345 344 343 343 342
347 346 346 347 347 348 348 348 349 350 352 352 353 354 353 353 352 353 353 352 350 350 351 353 353 351 350 349 349 350 350 350 351 351 352 350 343 342 344 343 344 343 342 341 341 342 343 344 342 345 350 347 345 347 347 345 346 350 349 349 355 352 348 347 346 346 344 342 342 340 341 343 341 342 343 343 344 343 343 343 343 345 345 343 341
347 346 347 348 348 348 349 349 349 351 351 351 353 354 353 353 352 352 353 354 354 350 349 352 352 352 352 351 350 349 350 351 352 351 351 349 344 342 344 344 343 343 343 343 342 342 343 345 345 345 346 345 344 345 345 344 345 351 353 351 352 350 347 347 346 347 346 342 342 342 340 340 341 342 341 342 342 341 342 342 341 343 343 342 343
347 346 347 347 350 349 349 351 350 351 351 350 352 353 353 353 349 349 351 354 353 347 349 353 351 350 352 352 352 351 352 352 353 352 351 350 347 343 343 343 344 345 344 345 346 343 343 346 349 346 344 345 345 344 346 348 349 354 357 355 353 350 346 347 347 347 349 348 347 345 342 341 343 343 342 341 340 340 341 340 340 342 341 342 347
348 347 346 347 350 350 350 351 350 351 351 350 352 352 353 353 349 347 349 352 351 346 347 349 345 345 347 350 352 352 352 353 352 353 353 352 350 346 344 342 346 348 345 347 348 344 343 346 347 346 344 345 347 349 352 353 354 355 355 356 356 353 349 346 347 347 347 350 351 349 346 345 344 343 343 343 342 340 340 339 339 341 342 344 346
348 347 346 347 349 350 351 351 350 351 351 350 351 351 353 353 350 347 347 350 351 347 346 346 343 343 343 346 350 350 352 352 351 352 352 352 351 350 347 343 345 348 346 348 348 344 344 344 344 346 345 345 350 354 354 352 355 356 355 357 357 355 352 347 346 348 347 348 349 348 348 347 345 344 343 343 343 341 339 337 338 340 342 344 345
348 347 346 347 348 349 351 350 350 351 351 351 351 351 353 352 350 347 347 350 349 346 346 347 344 344 345 348 350 350 352 352 351 351 351 352 352 351 349 346 346 349 348 348 346 344 345 344 343 346 348 347 347 350 352 352 355 356 355 356 354 354 355 353 349 348 348 349 348 346 347 347 346 346 347 347 345 343 341 339 339 340 341 342 343
347 346 346 347 347 348 349 349 349 350 350 351 351 351 353 353 349 347 348 349 349 346 346 347 344 344 349 353 352 352 352 352 353 353 353 353 353 352 351 349 347 350 350 347 344 344 344 344 343 345 351 352 348 351 355 355 354 352 349 349 347 350 355 355 353 351 350 350 350 349 347 347 347 345 347 349 347 345 343 341 341 341 341 342 341
346 345 346 346 347 347 348 348 347 348 349 351 352 352 354 354 349 348 349 347 348 347 346 347 345 343 351 355 353 354 353 351 353 354 353 354 353 352 352 351 348 348 349 346 344 344 343 345 344 343 349 352 351 355 356 354 351 347 344 346 346 350 354 352 352 354 353 352 352 351 349 349 349 346 346 346 346 347 344 341 342 341 341 340 341
345 345 346 346 347 346 346 347 346 347 348 350 352 352 355 354 347 347 350 348 346 346 346 347 346 345 352 356 353 355 355 353 354 352 351 351 350 350 349 350 350 348 349 347 345 345 343 345 346 344 347 351 353 357 356 351 347 345 345 347 347 349 352 353 352 353 353 353 352 349 348 350 349 348 349 346 345 347 345 343 343 343 342 341 342
345 345 346 346 347 346 345 346 346 347 349 350 352 353 355 355 349 344 348 349 346 345 345 347 347 347 351 353 350 352 353 353 353 350 347 347 350 352 351 350 351 351 351 348 345 346 344 344 349 349 349 352 352 355 355 351 349 350 348 345 346 346 349 352 353 352 351 350 350 348 348 350 348 348 349 347 345 345 345 344 343 344 344 343 345
345 346 346 345 346 345 345 346 345 348 350 349 351 353 354 355 351 344 345 348 347 345 346 347 348 349 349 349 348 350 351 352 351 349 347 348 351 354 352 351 352 352 353 351 348 350 346 342 349 351 350 350 350 353 356 353 352 355 351 347 347 346 346 350 351 353 352 349 351 350 349 350 348 348 348 348 347 346 344 344 345 345 344 344 345
345 345 346 346 346 345 345 346 346 348 350 350 350 351 353 355 353 346 343 345 345 346 348 347 348 349 348 348 347 348 349 350 351 350 350 351 354 354 351 349 349 350 353 353 351 352 347 341 345 348 347 347 348 351 354 353 354 355 353 352 351 348 348 349 349 353 355 352 352 352 351 351 351 350 349 347 347 347 347 347 348 346 345 345 345
345 345 346 346 345 345 345 346 347 348 350 351 350 350 353 354 354 350 344 342 343 346 348 348 349 348 348 348 348 347 348 350 351 353 354 354 355 354 353 353 350 350 353 353 353 354 350 345 343 344 344 344 345 347 347 348 350 353 353 354 355 352 349 347 349 354 354 352 352 352 352 351 350 351 350 348 348 348 349 350 350 348 347 346 345
345 345 345 345 345 346 346 347 348 349 349 350 350 351 352 354 354 351 345 341 342 344 345 347 349 349 349 349 351 352 351 353 355 356 356 356 355 354 355 355 353 353 355 354 354 354 352 348 344 344 344 344 344 344 345 345 346 346 349 351 354 354 349 346 352 356 353 352 352 351 351 350 350 351 351 350 350 349 350 350 350 350 350 349 346
344 345 344 345 345 346 347 348 349 349 349 349 349 351 352 353 354 352 347 343 342 342 343 346 349 351 350 348 352 355 354 355 355 353 354 357 357 355 354 355 355 354 354 353 352 350 350 348 347 347 346 344 344 343 345 348 345 345 347 345 349 356 353 347 350 355 354 352 352 351 350 349 349 351 351 351 351 352 351 350 350 351 352 352 350
344 344 344 345 345 346 348 348 349 349 348 348 349 351 352 353 353 353 351 349 345 343 344 346 347 351 351 348 352 355 354 355 353 351 355 356 355 354 354 354 355 355 354 352 350 347 346 347 349 350 347 345 345 343 344 347 344 346 348 345 348 356 354 346 348 355 356 354 354 354 353 351 351 351 350 349 351 353 351 350 351 352 354 354 353
345 344 344 345 346 347 348 348 348 348 348 348 349 350 351 352 352 352 352 353 350 347 348 348 346 350 352 349 350 354 355 356 353 351 355 356 353 353 355 355 355 355 354 354 353 348 345 347 349 350 348 345 347 346 345 346 345 348 351 348 348 351 348 345 346 350 355 356 356 355 355 354 353 352 350 350 353 355 353 351 352 353 355 355 355
345 345 344 345 346 346 348 348 347 347 347 348 350 350 352 351 350 350 350 352 352 350 351 351 349 350 352 350 350 353 354 355 354 353 354 355 355 354 354 354 354 354 353 353 354 352 349 346 346 347 347 346 347 347 346 345 345 349 351 351 350 349 345 346 347 348 354 357 356 356 355 354 355 355 353 352 352 354 354 353 353 354 356 355 355
346 346 345 345 346 346 347 348 347 347 347 348 349 350 351 351 350 349 348 350 351 350 351 352 351 351 352 352 351 351 353 354 354 355 355 354 355 354 353 354 354 354 353 352 354 355 353 350 350 351 352 351 350 350 349 346 344 347 351 354 356 353 347 346 348 350 356 357 354 353 353 352 353 355 355 354 353 354 355 355 355 355 355 356 357
345 345 346 345 345 346 347 347 348 348 347 347 350 351 351 351 350 348 348 348 349 350 350 351 351 350 351 352 351 350 352 354 355 355 355 355 355 354 354 354 354 354 354 353 353 355 355 354 354 354 355 355 352 352 353 350 345 344 346 351 354 350 345 347 349 349 352 355 352 348 347 348 347 349 354 355 354 353 354 354 355 355 355 355 357
347 345 345 346 346 346 347 348 349 349 348 347 348 350 351 351 351 350 348 348 348 349 350 351 351 350 350 351 351 351 351 352 354 354 355 355 355 355 355 355 355 355 355 355 354 355 355 355 355 355 356 358 352 350 355 355 351 346 345 351 354 349 344 347 348 346 348 353 353 348 346 348 348 349 353 354 353 353 354 354 353 354 353 352 354
350 348 346 345 346 346 346 349 350 350 349 347 346 350 352 353 353 352 349 349 350 349 350 351 351 350 351 350 350 350 350 350 351 353 353 354 354 355 355 355 355 355 355 355 354 354 354 354 356 356 355 356 351 348 354 357 354 348 346 352 357 355 351 350 351 350 350 354 355 353 352 352 353 355 355 355 354 354 353 353 354 354 354 354 354
350 348 345 345 346 346 346 349 352 353 352 349 347 351 355 355 356 355 351 351 351 349 350 352 352 350 350 350 349 349 349 348 348 349 351 352 352 354 355 354 355 354 354 355 354 356 355 352 354 355 351 351 351 349 353 356 353 350 348 349 353 354 354 353 353 354 354 354 355 355 355 355 354 355 355 354 353 352 352 354 354 354 353 354 353
353 350 347 346 346 345 346 350 355 357 355 353 351 354 358 358 359 357 355 354 353 350 350 352 351 351 350 350 349 348 348 347 347 347 348 349 350 352 354 354 353 352 353 354 354 356 357 352 352 355 351 348 350 351 353 355 356 355 353 353 353 352 352 351 350 351 351 351 351 352 353 352 353 354 353 352 351 351 352 351 350 350 350 350 350
355 354 353 352 351 349 351 354 357 358 357 357 356 358 359 360 359 358 357 357 355 351 351 352 351 351 351 350 349 348 347 347 346 345 345 346 346 348 351 352 352 351 351 354 354 355 356 353 352 356 355 350 348 351 351 352 357 358 356 355 355 354 353 352 351 350 349 349 349 350 350 350 351 352 350 350 349 348 348 348 347 348 348 348 348
353 354 354 356 356 356 357 358 358 357 357 358 358 358 359 358 359 359 357 356 356 353 352 352 350 351 351 349 349 349 347 345 346 345 344 345 345 346 347 349 350 350 350 352 353 354 355 355 354 356 357 353 349 350 350 348 352 357 357 356 354 352 352 352 350 349 349 348 348 348 348 348 349 349 349 349 348 347 346 346 346 346 347 348 347
355 353 352 355 358 358 359 359 359 358 357 358 358 358 358 357 358 359 356 356 356 352 350 348 347 351 350 346 347 349 348 347 347 346 345 345 345 345 345 346 347 348 348 348 349 351 353 354 354 354 355 354 351 351 352 349 348 351 354 355 354 352 351 350 349 348 347 346 345 345 345 345 345 346 348 348 346 347 347 347 347 348 347 347 346
354 354 352 354 355 355 356 356 358 359 359 359 358 358 357 356 357 357 354 355 355 353 352 349 347 349 347 344 346 349 349 349 349 349 348 348 347 346 346 345 346 346 347 346 346 347 348 350 352 352 352 352 351 351 352 351 350 349 351 352 352 352 351 349 348 348 347 346 345 344 343 343 342 344 346 344 342 342 342 341 342 342 342 344 345
353 353 353 351 349 349 349 349 351 353 356 358 358 357 356 355 356 355 353 353 353 353 354 352 350 350 347 345 346 347 347 348 348 349 349 349 349 349 348 348 347 347 346 346 346 345 345 346 348 350 350 350 348 348 349 350 351 350 350 352 351 352 351 350 349 348 348 346 345 344 344 343 343 344 345 344 341 338 336 335 335 336 338 341 342
352 353 353 349 346 346 346 346 344 343 348 353 355 356 356 355 356 355 354 354 354 354 354 354 355 353 349 347 346 345 345 346 346 348 348 348 348 349 350 351 351 350 348 347 346 346 345 345 345 346 348 348 347 346 346 347 348 347 347 349 351 352 352 352 352 351 349 347 346 344 343 343 344 345 345 345 342 339 338 339 340 341 342 342 343
353 354 354 352 350 349 349 349 346 344 347 351 353 355 355 355 355 354 353 354 353 353 355 357 358 356 351 349 347 345 345 346 346 347 348 348 347 348 350 350 350 352 351 349 349 348 346 344 344 344 344 345 345 345 345 346 346 344 342 340 343 347 350 350 350 350 349 348 347 345 344 343 343 344 346 346 345 343 343 343 343 344 344 344 344
353 353 353 353 354 353 352 351 350 350 351 351 352 353 353 354 354 353 353 353 353 353 354 356 357 355 354 353 351 350 351 350 348 348 349 349 349 349 351 351 350 351 352 351 351 350 347 346 345 344 344 344 344 345 345 345 345 344 340 337 336 339 344 347 348 348 348 348 348 347 346 345 344 344 345 347 348 348 345 342 342 343 343 343 343
350 350 350 351 352 352 352 353 352 352 352 351 351 352 352 352 352 352 353 353 352 353 353 353 353 353 353 353 351 351 351 348 346 346 347 348 349 350 351 351 351 350 351 352 353 353 352 351 348 347 348 349 348 347 346 346 345 343 340 337 334 333 339 345 347 346 346 346 347 348 347 347 345 345 346 347 348 349 347 344 344 344 343 343 344
347 348 348 349 350 350 350 351 352 352 351 352 352 352 351 351 350 350 351 351 351 350 350 350 350 349 350 350 349 349 348 345 343 344 345 346 348 349 349 350 351 350 350 351 351 353 355 355 354 352 352 352 352 350 349 348 346 343 341 339 336 334 337 342 346 347 346 346 348 349 349 349 348 348 349 350 351 351 350 348 346 345 346 348 349
346 346 346 347 347 347 347 348 350 351 351 351 351 351 351 351 349 348 348 348 349 349 349 349 348 348 349 349 350 350 349 348 348 349 350 350 350 351 351 351 350 350 351 351 352 353 353 354 355 354 353 353 352 350 349 348 345 343 343 343 343 342 340 340 343 346 348 349 351 351 351 352 352 352 353 353 352 351 349 348 346 346 348 351 352
344 344 344 344 344 344 344 346 347 348 348 348 349 350 350 349 348 348 349 348 348 347 348 349 348 348 349 349 350 351 351 350 351 351 352 353 353 353 353 353 352 352 353 353 353 353 353 353 353 353 352 352 350 349 349 349 347 346 345 347 349 348 347 345 346 346 347 349 350 350 349 349 350 352 354 354 353 351 349 348 348 348 351 353 353
342 342 342 341 342 343 343 344 345 344 344 344 345 346 347 347 348 347 347 347 346 346 347 348 347 347 348 348 349 349 350 350 351 351 351 352 352 353 353 352 352 352 353 353 353 354 353 353 353 353 352 352 350 349 351 351 351 350 349 350 351 350 350 352 352 350 348 348 349 349 347 347 349 351 352 352 352 351 350 349 350 351 354 355 354
340 340 339 338 338 339 340 341 341 341 341 341 342 343 343 343 344 344 344 344 344 344 344 344 343 343 344 345 346 347 348 349 350 350 350 350 351 351 350 350 350 351 351 351 351 351 352 352 352 351 352 351 350 350 351 352 352 352 351 351 351 350 351 353 355 353 351 350 350 349 346 347 350 351 350 351 351 351 351 351 352 353 354 355 355
337 337 336 335 333 334 336 336 334 335 335 336 337 339 339 338 339 340 340 340 340 340 340 340 340 341 342 343 344 345 346 348 348 348 347 348 348 347 346 345 346 347 347 347 348 348 348 349 349 349 350 351 350 351 351 351 350 350 351 350 350 351 351 352 353 353 352 351 351 350 348 348 350 351 351 351 352 352 352 352 352 352 353 353 354
333 332 333 332 331 332 332 330 330 331 331 329 329 329 329 330 332 333 335 334 334 334 335 336 336 337 339 342 343 344 345 345 346 345 344 344 344 343 342 341 342 342 343 343 344 343 343 344 344 345 346 347 347 348 349 349 348 348 348 348 349 350 350 350 351 351 352 351 350 349 349 349 349 350 351 352 352 352 352 351 351 351 351 351 351
330 330 330 330 330 329 324 323 327 330 328 326 325 323 321 321 323 324 326 326 326 327 329 330 331 333 335 337 337 339 341 341 341 341 341 340 340 339 338 339 339 339 339 339 339 339 339 338 336 336 337 338 339 341 342 343 342 341 341 341 341 343 344 346 348 349 349 349 349 349 350 350 350 350 350 350 350 349 349 349 348 348 349 348 349
328 328 326 324 324 322 320 321 325 326 323 320 320 319 320 321 320 318 318 319 321 323 324 325 328 330 332 331 329 330 333 335 336 337 336 336 337 338 337 337 337 337 336 336 336 336 336 335 333 332 332 331 330 330 330 331 330 329 329 328 329 330 332 336 341 343 344 344 345 344 345 345 344 344 343 342 341 341 341 340 340 340 340 340 340
329 327 325 323 323 324 325 325 326 326 322 317 314 315 317 319 319 318 316 314 315 317 316 318 321 323 325 328 327 326 327 327 329 330 331 330 332 335 335 335 336 336 336 336 336 336 336 336 335 334 334 333 332 329 326 324 323 322 322 321 322 323 323 326 331 335 336 337 335 333 332 331 330 331 331 330 330 331 330 330 331 331 330 330 332
330 328 327 327 327 328 328 327 328 326 319 312 311 313 316 317 316 316 316 313 314 316 316 318 322 323 325 329 330 328 327 324 321 325 329 330 330 331 331 332 334 335 335 335 335 335 335 335 335 336 335 335 335 333 329 325 321 320 319 319 319 318 319 320 322 325 326 326 324 323 322 323 324 324 324 324 324 325 324 324 325 323 324 331 336
330 329 328 328 328 328 327 326 326 324 319 316 313 312 312 311 309 310 312 311 312 314 315 316 318 319 323 328 329 329 328 325 323 326 330 331 331 332 332 332 333 334 333 332 332 333 332 332 333 335 335 334 333 332 332 331 328 326 325 324 322 320 318 319 321 322 321 318 318 319 318 319 319 319 319 320 320 321 322 321 322 323 325 333 337
329 329 327 327 327 326 325 325 325 325 324 322 317 312 309 311 314 315 311 307 307 310 311 310 312 315 320 327 329 329 328 327 326 327 328 329 330 331 329 328 330 332 332 331 330 330 330 330 332 333 333 332 331 331 331 329 327 327 328 329 328 326 323 322 323 323 320 316 318 318 317 317 316 315 316 319 321 325 325 324 326 327 326 329 331
329 329 327 327 327 326 325 324 323 323 322 319 316 314 315 320 325 323 315 308 307 307 308 311 316 320 324 325 326 326 328 328 328 328 328 328 330 330 328 328 330 331 330 329 329 329 328 329 331 332 331 331 330 330 328 324 318 318 322 324 323 321 319 318 317 317 315 314 316 319 322 324 322 319 321 323 325 328 327 325 327 325 321 324 327
328 328 324 323 325 325 323 320 320 319 317 314 314 315 316 321 322 318 313 311 309 308 311 318 322 324 323 321 320 321 327 329 328 328 330 328 328 329 329 328 328 328 328 329 330 329 327 328 330 330 330 330 329 328 328 324 317 314 315 316 315 314 314 313 313 313 313 311 313 319 326 328 325 323 324 325 324 325 325 324 326 323 321 324 325
327 326 322 319 319 318 316 315 315 314 312 310 310 311 315 319 317 312 311 312 310 313 319 323 325 324 322 323 324 325 328 329 327 328 328 326 326 328 328 326 323 321 321 324 327 327 327 328 328 327 327 327 328 328 327 324 317 314 314 314 313 314 314 313 313 313 313 314 319 324 326 327 325 323 323 324 324 323 324 324 323 322 323 324 323
323 323 320 318 317 315 313 313 313 312 311 311 310 308 311 314 312 309 310 309 311 318 323 324 325 323 320 323 327 327 326 328 328 328 327 324 324 326 326 323 320 316 314 315 317 320 323 324 324 323 322 321 323 325 324 320 316 315 315 315 315 315 314 314 315 313 312 317 325 327 325 326 326 323 323 324 323 322 323 323 322 322 323 323 323
Wind_Speed
19 20 19 17 17 16 16 15 15 14 14 15 15 14 14 14 14 14 14 13 13 13 12 11 10 10 11 10 10 9 9 10 9 9 8 8 10 10 10 11 10 11 11 11 10 10 9 8 9 9 6 7 9 7 5 5 6 5 4 6 4 2 4 3 4 5 5 6 6 5 5 3 3 3 2 2 2 3 3 2 2 3 2 3 4
20 21 20 19 18 17 16 16 16 15 15 15 15 14 14 14 14 14 13 13 13 13 13 12 10 10 10 10 10 10 10 10 9 9 9 9 10 11 10 10 10 10 11 11 10 10 10 9 9 8 6 6 7 7 6 6 7 5 4 6 5 3 4 4 5 6 4 6 7 6 6 5 3 1 1 2 3 3 4 3 2 3 2 4 4
21 21 21 20 19 18 17 17 16 16 16 15 15 15 14 14 14 13 13 12 12 12 12 11 11 10 9 8 9 10 10 9 9 9 9 9 10 10 10 11 10 10 10 10 10 10 10 9 8 7 7 7 7 7 6 6 8 7 5 5 6 4 5 5 5 6 5 5 7 6 6 6 4 1 1 2 2 2 3 3 2 3 4 3 2
22 22 21 21 20 19 18 17 17 16 16 16 16 15 15 14 14 13 13 13 12 13 13 11 12 14 13 11 9 10 10 10 10 9 8 9 9 9 10 11 10 9 10 9 9 10 10 9 7 7 7 7 7 7 6 5 6 6 5 5 6 5 6 6 5 5 7 6 3 4 5 5 5 3 3 3 2 1 3 3 2 3 4 2 2
22 22 21 21 20 19 18 18 18 17 16 17 16 15 15 14 14 14 13 13 13 14 14 13 13 15 16 15 12 12 11 10 10 10 10 10 10 9 10 11 10 9 10 9 8 9 10 9 8 7 7 8 7 5 5 4 4 4 5 5 5 5 5 6 6 5 7 6 4 3 4 3 2 2 3 3 2 2 1 2 2 3 4 2 1
21 22 21 21 21 19 18 18 18 17 17 16 16 15 15 15 14 13 14 13 13 14 14 13 13 13 13 14 12 12 11 10 10 10 10 10 9 9 10 10 11 10 10 9 8 9 9 9 9 7 6 7 7 6 4 5 4 3 4 4 3 5 6 5 6 6 6 6 5 4 5 4 1 2 3 2 2 2 1 2 2 2 2 1 0
21 21 21 21 21 20 19 19 18 17 17 16 16 15 15 15 14 13 13 13 14 14 13 12 12 12 12 10 10 10 10 10 9 9 10 9 9 10 10 11 11 10 9 9 9 9 9 9 9 8 6 5 7 7 5 4 4 3 3 4 5 6 7 6 5 5 5 5 5 4 4 5 3 2 3 2 3 3 1 1 2 1 2 1 1
21 21 21 21 21 21 19 19 18 17 17 17 17 16 16 16 15 14 13 13 13 13 13 12 13 13 12 9 9 9 9 10 10 9 9 9 9 10 10 10 11 10 10 9 9 9 8 9 9 9 8 6 6 7 5 4 4 4 5 5 6 7 7 6 5 6 5 4 5 4 3 3 3 3 2 2 2 4 2 0 0 1 2 3 4
22 21 22 22 21 20 19 19 18 18 18 18 17 17 17 16 16 15 13 13 13 13 13 12 13 14 12 9 10 9 9 11 11 10 10 10 10 11 10 10 10 10 10 9 9 9 8 8 8 9 9 8 6 5 4 6 5 5 6 6 5 5 4 5 6 6 5 4 3 4 4 2 1 1 1 1 1 1 1 1 2 2 2 3 5
21 21 21 21 21 20 20 19 18 18 18 18 17 18 18 17 17 16 14 13 12 12 13 12 13 14 12 10 11 10 10 11 10 10 12 12 11 11 11 10 9 9 9 9 9 8 8 8 8 8 8 7 6 5 5 6 5 5 6 6 5 5 4 4 4 4 4 4 2 3 4 2 2 1 1 1 1 1 3 2 2 2 3 4 4
22 21 21 21 20 20 20 19 19 18 18 18 18 18 18 18 17 17 15 13 12 12 13 12 12 14 13 12 11 11 11 11 11 11 11 12 11 10 10 10 9 9 8 8 8 8 8 9 8 7 7 7 7 6 5 4 4 4 4 4 4 4 4 4 3 2 2 2 1 1 2 1 1 1 2 2 1 3 3 2 2 4 5 4 4
22 22 22 21 21 20 20 20 20 19 18 18 18 18 18 18 18 17 16 14 13 13 13 13 13 13 14 13 12 11 11 11 11 10 10 10 10 9 9 9 9 9 9 8 8 8 8 9 9 8 8 8 8 7 5 5 6 4 4 4 3 3 3 4 4 2 1 1 1 1 1 2 1 2 3 1 1 2 3 3 3 4 5 4 4
23 23 23 22 22 21 20 21 20 20 19 18 18 18 18 18 18 18 17 15 14 14 13 13 13 13 13 13 13 12 11 11 11 10 10 10 9 9 9 10 10 10 10 9 9 9 9 9 9 9 8 8 8 8 9 10 8 5 4 3 2 2 2 2 3 2 2 2 1 2 2 2 2 3 3 3 3 3 3 4 4 5 5 5 4
23 23 23 23 22 22 21 21 21 20 19 18 17 17 17 17 18 18 17 16 15 14 14 14 14 13 13 13 13 12 11 10 9 9 8 9 9 9 8 8 9 9 9 9 9 9 9 9 9 9 8 9 9 8 9 10 9 6 4 4 3 3 3 3 2 1 2 2 2 3 3 3 3 3 3 3 4 3 3 4 4 5 7 6 5
24 24 24 23 23 22 21 21 21 20 20 19 17 17 17 17 18 19 18 17 16 15 15 15 14 13 13 14 13 11 11 10 9 9 9 8 8 8 8 8 8 8 9 9 10 10 10 9 9 9 8 8 8 8 8 8 8 7 5 6 5 3 3 3 2 2 3 3 3 4 3 3 4 4 4 4 4 3 2 3 4 4 6 6 6
24 24 24 24 24 23 21 20 20 20 20 19 18 17 17 17 18 19 18 18 17 16 16 15 15 13 13 14 13 12 11 10 11 12 10 9 8 9 9 9 8 8 9 10 11 11 10 10 9 8 8 8 8 8 8 8 8 7 6 6 5 3 4 4 3 2 3 3 3 4 4 3 4 4 4 3 3 3 2 3 4 4 5 5 6
25 25 24 24 24 24 22 21 20 21 20 20 19 18 17 17 17 18 18 18 18 17 17 16 16 14 13 14 13 12 12 11 11 11 10 9 10 9 9 9 9 8 9 9 10 11 11 10 10 8 8 8 8 8 8 8 8 7 6 6 5 5 7 6 4 3 3 3 3 4 4 3 4 4 4 4 4 5 3 3 3 3 4 5 7
24 25 25 24 24 23 23 22 21 21 20 20 19 19 18 17 17 18 18 18 18 18 17 17 16 15 14 14 14 13 12 11 10 9 9 9 9 9 9 10 9 9 9 9 9 10 10 10 11 10 9 9 8 8 9 8 8 7 7 7 7 7 7 6 5 5 4 4 4 4 4 4 4 5 4 4 4 5 4 3 4 4 4 5 6
25 25 25 25 24 24 23 22 21 21 20 20 20 19 19 18 17 17 18 18 18 17 17 17 16 16 15 15 15 14 13 12 10 9 9 9 9 9 9 10 9 10 10 10 9 9 9 10 10 10 9 9 9 9 9 8 8 7 7 6 6 7 7 5 6 5 4 5 5 4 5 4 4 5 5 5 5 5 4 4 5 5 5 6 7
27 26 25 25 25 24 24 22 21 21 20 20 20 20 19 18 18 18 17 18 17 17 18 17 17 16 15 15 16 15 14 13 11 10 10 10 10 9 9 9 9 9 10 10 9 10 9 9 9 9 8 9 8 8 8 8 8 8 7 6 7 9 7 6 6 6 5 6 7 6 6 6 5 5 5 5 5 5 5 5 5 6 6 7 7
26 27 25 25 25 24 24 22 21 20 20 19 20 20 19 19 18 18 18 18 18 17 18 18 17 16 16 15 15 16 15 14 12 13 12 11 11 10 10 9 9 9 10 10 10 10 10 9 9 9 9 8 8 8 8 8 8 8 8 8 8 8 7 6 6 6 6 7 7 7 7 7 7 7 6 6 6 6 6 6 6 6 6 7 7
22 26 26 25 25 24 23 22 21 21 20 20 20 20 20 19 19 19 18 18 18 18 18 18 17 17 16 16 15 15 16 15 14 14 14 13 12 12 12 11 10 10 10 10 10 10 10 10 10 9 9 9 10 9 9 8 7 8 7 7 8 8 6 6 7 7 6 6 7 7 7 6 6 7 6 6 7 7 7 6 6 7 7 8 8
20 23 25 25 24 23 23 22 20 21 21 21 20 20 20 19 19 19 19 19 19 18 17 17 17 17 17 16 16 16 16 16 16 15 15 14 13 13 13 13 12 11 11 11 11 11 11 11 10 11 11 11 11 10 9 10 9 9 8 8 8 8 7 7 7 7 6 6 7 7 6 6 6 6 7 6 7 7 7 7 7 7 7 8 8
22 22 23 23 23 23 22 21 19 20 20 21 21 19 19 19 19 20 20 20 19 18 17 18 17 17 17 17 16 16 16 16 17 16 15 15 14 14 14 13 13 12 12 12 11 11 12 12 11 12 12 11 11 10 9 10 11 10 9 8 9 9 9 8 7 7 7 7 7 7 7 7 7 7 8 7 7 7 7 7 7 7 8 8 8
17 17 19 21 21 22 21 20 19 18 19 20 21 19 19 20 20 19 20 20 20 18 18 18 17 16 17 17 17 17 16 16 17 16 16 15 15 14 14 14 14 13 12 12 12 12 13 12 12 12 12 11 11 10 10 11 10 10 10 9 9 9 9 9 9 8 8 9 9 9 8 8 8 8 9 8 7 7 7 7 7 8 9 9 9
17 17 16 15 17 19 19 18 18 17 17 19 20 19 19 20 19 19 19 20 20 20 19 19 18 17 17 18 18 17 17 17 16 16 16 16 16 15 14 14 14 13 13 12 13 13 13 13 12 12 12 11 12 11 11 12 11 11 10 10 10 10 9 10 9 9 9 9 9 9 9 9 9 10 9 9 9 9 9 8 8 9 9 9 10
22 21 19 16 16 17 16 16 17 16 16 17 17 18 18 19 19 18 18 19 20 21 21 21 19 17 18 19 18 17 17 17 16 16 15 15 16 16 15 14 14 14 14 14 13 13 13 13 13 13 13 13 13 12 12 12 12 11 11 10 11 11 10 10 10 10 10 10 10 10 10 10 11 11 11 10 10 10 9 9 9 10 10 10 10
21 23 22 20 19 18 16 15 15 14 14 15 16 16 16 17 17 17 18 19 20 21 22 22 20 19 19 19 18 17 17 16 16 16 16 15 15 16 16 15 15 14 15 15 15 14 14 14 13 13 13 13 13 13 13 13 13 12 12 11 11 11 11 11 11 11 11 11 11 11 11 12 12 12 13 11 10 10 10 10 10 10 11 12 12
18 20 21 22 22 21 19 16 13 12 13 13 14 15 16 16 16 17 17 18 19 20 21 21 20 20 20 19 18 18 19 19 18 18 18 16 15 15 16 16 16 16 15 15 15 15 15 15 14 14 14 14 14 13 13 14 13 12 12 12 12 12 12 12 12 12 12 12 12 12 12 13 13 14 16 15 13 13 14 14 13 14 15 15 15
18 17 19 22 22 20 17 15 14 13 12 12 12 14 15 15 15 16 17 17 19 19 20 21 21 21 20 19 19 19 19 20 20 19 19 18 17 16 16 16 17 17 17 16 16 16 16 16 15 15 15 15 14 14 15 15 14 13 12 11 12 12 12 13 13 13 13 13 13 13 13 14 15 16 18 19 18 17 17 17 17 17 17 17 17
16 16 18 22 23 20 17 17 18 18 15 14 14 14 15 15 15 16 16 17 18 18 19 19 20 21 22 21 20 21 20 20 20 19 19 19 19 18 18 18 18 17 17 18 18 17 18 17 16 16 15 15 15 16 17 17 17 16 14 13 12 12 12 13 14 14 15 14 14 14 14 15 17 18 20 21 20 20 19 18 18 18 18 18 19
13 13 14 17 18 18 16 15 17 18 16 16 17 16 15 14 15 16 16 17 18 18 18 18 18 21 23 21 21 21 20 19 19 20 20 20 20 20 19 19 19 17 17 19 19 19 20 19 17 17 16 15 17 19 19 19 20 20 18 17 16 14 13 13 14 14 15 15 15 15 15 15 16 17 18 18 17 18 19 18 17 18 19 19 20
11 11 11 11 11 13 13 13 15 16 16 17 19 19 18 17 16 16 16 18 18 17 18 19 20 22 22 21 21 20 19 18 18 18 18 19 20 20 20 20 20 19 19 19 19 19 20 20 19 18 16 16 19 21 21 22 23 22 21 19 18 17 16 15 15 15 15 15 16 16 16 16 16 16 16 15 16 19 21 20 18 19 20 20 20
10 11 10 10 11 12 13 13 15 16 17 18 20 22 21 21 20 18 17 17 18 18 19 20 20 21 21 21 21 20 18 19 21 20 19 19 20 21 21 21 22 22 22 21 19 18 17 17 19 18 16 17 20 22 21 22 24 23 22 19 18 19 18 16 15 16 16 16 16 17 17 17 18 18 17 17 19 21 23 21 19 20 21 21 21
9 9 9 9 9 11 12 14 16 18 19 20 20 21 22 20 19 18 17 17 17 17 19 19 19 19 18 17 18 18 19 21 23 23 21 21 22 22 21 21 22 23 23 23 22 20 17 15 15 16 16 19 21 22 22 23 23 22 21 19 18 19 19 18 16 15 15 16 16 17 18 17 18 19 20 21 21 20 20 20 21 22 22 21 21
8 9 9 9 9 11 13 15 17 19 20 20 20 20 21 20 19 20 20 19 17 16 17 17 16 15 14 15 16 16 18 20 21 19 18 18 18 19 19 21 21 22 22 22 22 22 20 18 16 15 15 18 20 21 23 23 22 22 20 18 18 18 19 19 18 16 15 16 18 19 19 16 16 18 21 22 23 21 20 21 23 23 22 21 19
9 9 9 8 9 10 12 13 15 16 15 16 18 20 20 19 19 21 21 20 17 17 17 17 14 13 14 16 16 16 17 19 18 16 15 15 15 15 16 17 18 18 18 18 18 20 20 20 20 18 16 18 20 22 24 23 23 23 21 19 19 18 18 18 18 19 19 20 20 21 19 17 16 17 18 20 21 22 21 21 22 22 21 20 19
12 13 13 12 11 12 12 12 12 12 11 13 16 18 18 18 19 20 20 19 18 16 16 14 12 10 10 12 13 14 15 16 14 13 13 13 14 14 13 14 15 15 16 16 17 18 18 18 20 18 16 18 21 22 23 23 23 22 21 20 19 18 17 15 15 18 21 21 22 21 20 20 20 21 21 22 23 23 23 23 23 22 20 19 19
16 16 16 16 17 18 17 17 17 16 15 14 14 16 18 19 20 19 18 18 17 16 16 13 10 9 8 8 9 9 9 9 9 10 11 11 12 12 11 11 12 14 14 14 15 16 16 16 17 16 16 18 20 20 20 20 20 20 19 18 17 16 16 13 11 15 19 19 19 20 20 21 22 23 24 24 23 23 23 23 23 22 20 19 20
17 18 18 18 20 19 18 19 20 19 17 15 15 16 17 19 21 20 20 19 18 17 17 15 14 12 10 8 9 10 9 8 8 9 9 8 7 7 6 5 5 6 7 7 7 10 12 12 11 12 15 17 17 16 16 16 15 14 13 12 11 12 13 12 11 13 17 17 17 18 20 22 23 23 23 23 23 22 22 22 22 22 22 22 23
18 20 19 18 18 17 16 19 19 17 15 14 15 16 16 17 18 18 19 18 18 18 18 17 16 14 10 8 10 11 10 9 8 7 6 7 6 5 6 6 4 3 4 3 1 3 6 7 6 8 11 11 10 10 11 11 10 10 9 9 10 11 12 13 10 8 11 14 15 17 19 21 22 23 23 23 23 22 22 22 22 23 23 23 23
20 19 17 16 15 16 18 19 16 12 11 12 13 16 16 16 16 16 15 14 14 15 16 16 16 14 10 7 9 10 8 8 7 6 6 6 6 6 7 8 6 5 6 7 5 4 2 2 2 3 5 5 5 6 7 7 7 6 6 7 8 9 8 8 6 5 6 7 9 13 18 20 21 22 22 21 20 20 19 19 19 20 21 21 21
19 16 16 16 17 17 17 16 11 8 9 9 10 13 15 14 15 15 13 12 12 12 13 13 13 12 9 7 8 7 6 6 6 6 6 6 7 5 5 6 6 5 5 5 6 6 4 3 2 2 0 1 3 3 3 3 3 2 2 3 3 4 3 3 5 4 3 3 5 9 13 16 16 16 17 16 16 16 16 16 16 15 16 17 17
16 15 15 15 15 13 12 10 8 7 8 8 8 9 10 11 12 12 12 12 11 11 11 10 8 7 7 6 6 6 6 5 5 5 4 5 6 5 5 5 5 4 3 3 3 4 4 3 3 3 2 2 2 3 2 2 2 2 3 3 2 2 2 3 5 4 3 4 6 8 8 9 10 10 12 12 13 13 14 14 14 14 14 15 14
15 15 13 12 11 11 10 9 8 6 7 8 7 7 8 9 10 11 11 11 10 10 10 9 8 7 6 5 5 6 6 5 4 3 2 2 3 3 3 4 4 4 3 2 2 2 2 3 3 2 2 2 0 3 5 5 5 5 4 5 5 4 3 3 5 6 6 7 9 10 9 9 10 10 11 12 13 13 13 14 14 15 13 12 12
14 13 11 10 10 10 9 9 8 6 7 8 7 7 7 7 7 8 9 10 10 10 10 10 9 8 7 5 4 4 4 4 4 4 3 2 2 2 3 3 2 2 2 2 2 1 1 2 2 2 2 3 2 1 3 5 6 5 6 8 8 6 5 4 4 6 9 9 9 10 10 10 11 11 11 12 13 14 14 14 13 12 10 7 10
13 11 10 9 9 9 9 9 9 9 8 7 6 6 6 5 4 4 5 7 8 8 8 8 7 7 8 7 5 5 4 4 4 4 3 3 2 1 2 1 2 2 1 1 1 1 2 2 2 3 3 2 2 3 5 5 4 3 2 4 5 5 4 4 4 7 10 10 10 11 11 11 11 11 11 11 11 11 12 11 9 9 9 8 12
13 11 10 9 8 9 9 8 8 8 7 5 4 4 5 6 5 4 4 5 6 6 6 6 5 5 5 6 8 8 6 4 4 4 5 6 5 3 2 3 5 7 5 3 1 1 1 1 1 2 3 2 4 8 11 11 8 6 6 6 7 8 8 8 9 9 10 10 9 10 10 11 11 10 9 9 8 7 9 8 7 10 11 9 12
11 9 9 7 7 7 6 5 6 6 4 4 3 4 5 5 5 5 4 3 4 4 5 5 5 4 5 5 6 6 4 3 4 4 8 10 10 9 7 6 9 10 9 8 7 5 5 3 1 4 6 5 7 12 14 12 9 7 9 10 11 11 10 10 11 11 11 10 9 8 7 8 8 7 7 7 6 7 8 7 7 10 10 8 10
12 9 7 5 4 3 2 2 3 3 3 4 5 5 5 5 5 6 4 4 3 3 4 4 3 3 4 5 4 4 5 5 5 4 6 8 11 13 11 7 6 8 9 10 10 9 10 8 5 7 10 11 13 14 14 13 11 9 9 9 10 10 10 10 10 9 9 8 7 6 6 6 6 6 6 6 6 7 8 7 8 9 8 7 9
14 11 7 5 5 3 2 2 1 2 4 5 6 7 7 7 7 6 6 6 5 4 4 3 2 2 5 5 3 2 6 7 5 4 3 3 7 12 13 11 9 8 8 10 11 12 12 12 9 10 11 12 14 15 14 13 12 10 9 9 9 9 9 9 10 10 8 5 5 5 6 5 6 6 6 6 6 7 8 8 8 8 8 8 9
Wind_Direction
162 164 162 161 162 160 158 158 157 155 154 154 153 152 151 153 154 151 153 157 155 153 151 150 153 152 152 157 156 152 153 150 147 146 144 154 156 149 147 147 147 149 147 145 144 145 148 151 149 140 137 139 133 137 151 147 130 114 118 106 74 52 85 87 94 99 118 116 112 119 106 101 89 84 149 180 170 166 159 123 137 156 137 118 116
163 163 162 162 163 162 160 160 159 158 159 158 157 156 154 156 156 155 158 158 156 158 156 154 156 154 154 157 158 159 157 153 151 151 155 165 161 151 149 148 147 149 147 147 148 148 149 151 152 147 147 150 137 135 140 132 123 112 98 95 87 77 82 90 105 106 124 133 129 125 111 107 98 58 181 188 190 169 162 148 128 158 143 101 117
165 165 164 163 164 164 162 162 162 162 162 162 161 159 157 161 162 161 160 157 161 166 159 153 156 155 152 155 157 157 156 154 154 157 164 168 162 156 151 150 150 149 149 151 151 153 153 151 153 154 151 144 136 135 130 124 121 104 83 95 102 109 102 92 98 98 104 126 131 132 131 115 104 194 219 167 178 174 174 174 131 127 124 111 140
167 168 166 165 165 167 165 165 164 164 164 164 165 162 162 167 167 164 160 158 165 165 157 157 164 160 154 152 150 152 155 156 157 157 158 160 164 165 158 155 154 152 153 153 158 162 157 153 156 161 156 146 142 135 120 116 113 101 103 101 88 103 113 97 87 103 118 125 131 146 145 119 105 148 165 138 121 177 176 156 130 127 120 123 156
169 170 168 166 167 169 168 167 167 167 167 167 168 166 167 171 167 164 162 161 164 163 162 166 166 161 160 159 156 157 160 158 159 160 159 162 167 170 167 164 160 161 161 158 167 170 162 162 162 162 163 149 134 125 125 132 120 112 117 93 74 101 116 105 90 96 117 111 81 77 97 92 55 77 125 132 95 68 113 118 131 133 105 75 93
172 171 170 169 169 172 170 170 170 169 170 168 169 169 169 171 167 164 162 161 164 166 166 166 162 162 164 162 160 161 160 160 163 165 164 163 165 171 173 168 165 166 166 165 174 175 170 171 164 159 167 159 147 150 154 137 119 116 110 85 93 112 102 106 105 96 99 90 77 70 68 71 42 27 66 86 49 25 10 139 133 142 122 82 354
174 173 173 171 171 174 172 172 173 170 171 169 168 168 168 171 169 166 164 163 169 170 166 164 164 165 161 158 162 161 159 161 162 163 163 160 165 173 172 169 168 166 169 174 178 179 175 174 168 160 163 171 160 145 125 119 131 152 138 124 134 122 100 93 99 101 96 83 88 91 70 77 97 89 62 43 350 346 338 164 129 156 165 103 40
175 175 176 175 173 175 174 174 175 172 171 169 168 168 168 172 171 169 168 168 172 173 170 168 167 164 158 160 165 161 163 164 158 158 160 158 164 169 170 174 173 167 176 184 178 181 180 175 176 165 159 177 168 138 126 165 183 170 147 140 138 127 115 107 100 96 90 87 93 91 76 73 89 106 89 65 332 334 349 354 63 94 83 35 25
178 177 176 177 175 175 176 176 176 174 171 169 169 168 169 173 172 171 172 173 174 175 173 170 170 166 158 163 165 157 164 164 157 160 163 163 168 170 172 178 178 173 179 185 179 183 182 177 181 172 166 174 164 145 163 185 185 167 148 143 140 129 123 128 118 101 87 89 92 91 90 64 48 126 143 84 84 316 327 24 24 56 41 359 359
180 179 176 177 176 176 176 175 176 173 171 170 169 168 169 172 174 173 174 175 177 178 175 172 174 169 160 166 168 157 158 159 160 170 172 172 175 176 177 176 179 180 183 186 183 185 184 180 182 177 171 170 162 168 188 185 173 165 159 156 158 152 140 133 125 112 107 101 92 102 96 56 18 55 344 6 74 336 328 4 14 360 339 345 346
179 178 176 178 177 176 175 175 174 171 170 170 170 170 170 172 176 176 174 175 179 180 179 175 173 171 167 171 172 163 161 161 168 176 174 175 174 175 179 175 176 181 186 191 186 188 191 183 181 181 179 179 176 175 182 187 177 175 173 165 165 163 156 153 144 135 137 122 101 104 85 22 312 352 341 339 2 344 336 345 25 4 335 343 3
179 176 176 178 177 177 177 174 172 170 169 171 171 170 171 173 177 180 177 177 180 181 181 178 173 172 172 174 174 170 167 164 169 173 171 171 171 173 178 179 180 180 183 190 184 188 196 188 184 187 188 187 180 170 180 194 185 186 192 168 157 162 165 169 154 136 200 193 167 214 279 300 286 298 312 323 329 335 325 308 336 354 327 324 354
179 176 176 177 177 180 178 174 172 171 171 171 172 171 172 174 177 181 182 180 182 181 182 181 177 176 176 178 178 175 172 169 168 171 171 168 170 177 181 182 184 180 181 185 182 188 196 193 189 191 193 192 186 182 190 189 176 177 196 174 164 176 173 185 169 161 234 226 217 251 272 288 292 298 300 302 310 323 333 322 321 326 313 307 317
180 177 177 177 177 180 179 175 173 173 173 173 173 171 172 175 177 181 184 184 185 183 183 185 182 181 181 182 185 181 178 173 168 170 176 173 174 180 180 182 186 182 180 180 180 187 193 193 193 194 197 197 195 194 192 188 182 187 193 173 188 227 200 190 193 226 262 244 249 268 277 283 288 301 303 296 304 317 336 341 336 324 315 309 307
181 178 180 180 178 179 179 177 175 175 175 176 175 172 172 176 179 182 185 187 188 186 185 185 184 186 186 185 185 183 180 177 175 177 180 180 178 179 177 179 185 181 179 181 183 189 192 192 193 195 199 201 201 200 194 196 197 198 200 183 187 235 236 205 211 251 267 261 264 271 267 273 286 296 299 299 312 326 333 331 334 331 323 317 311
183 181 182 180 178 180 180 178 178 179 178 178 178 176 175 178 181 183 186 188 189 189 187 186 185 187 190 187 183 184 183 184 188 185 180 181 178 180 179 176 180 183 184 189 190 192 193 190 191 195 199 201 202 200 194 202 207 202 212 201 182 234 258 229 220 245 267 271 275 276 269 273 285 289 298 303 301 301 303 314 322 329 327 322 318
183 182 183 181 178 180 181 181 182 181 181 182 181 179 178 179 181 183 185 186 190 191 188 187 187 187 192 190 186 189 188 188 196 188 178 185 184 182 182 176 180 184 184 189 190 192 193 187 185 193 200 199 199 203 200 206 209 203 219 221 196 221 241 227 222 238 260 272 273 279 280 281 285 287 295 295 286 287 291 299 306 307 312 317 317
182 183 184 182 180 181 182 184 185 184 184 183 182 181 181 182 182 183 184 185 188 190 188 189 189 187 192 194 190 193 193 192 200 191 180 190 189 182 183 182 184 180 177 191 195 194 196 189 185 191 196 195 196 203 207 212 213 209 224 232 220 227 234 225 227 230 238 259 257 263 276 279 287 291 290 289 291 295 293 287 289 292 295 301 304
183 183 183 183 183 183 184 186 186 186 186 183 183 184 184 184 184 186 187 186 187 187 188 190 190 188 191 195 193 194 196 195 198 193 186 191 192 190 189 185 183 180 180 192 195 193 198 195 191 194 194 195 200 204 209 214 215 214 226 239 247 253 245 229 235 233 232 254 252 249 263 267 276 286 284 284 286 287 288 285 284 285 288 292 298
182 184 184 183 184 185 186 187 186 186 187 186 186 186 186 186 186 187 187 187 187 187 189 191 190 190 191 195 196 195 195 195 195 194 192 191 193 194 196 190 186 187 189 191 188 191 200 196 192 195 193 197 205 205 210 216 214 215 217 219 243 262 259 240 241 239 232 245 250 248 254 259 265 274 280 285 285 278 277 278 280 287 292 294 300
183 185 186 185 186 186 187 187 186 187 188 189 189 188 188 187 187 188 186 187 188 187 190 192 190 192 193 193 197 197 195 194 195 197 195 193 193 191 193 195 193 194 194 193 190 191 198 194 191 195 192 200 210 203 206 218 215 217 215 207 223 247 252 243 246 244 238 242 249 250 253 259 265 269 270 275 279 278 275 275 276 280 282 280 284
186 188 188 186 187 187 187 186 186 188 190 191 190 189 187 187 187 188 187 187 189 189 190 192 191 193 196 194 195 198 197 195 197 200 197 195 196 192 191 194 195 196 195 194 194 195 197 193 193 196 190 202 220 208 202 217 218 218 218 211 228 250 249 239 244 248 245 246 254 259 262 266 270 273 273 273 275 278 278 276 274 276 278 276 276
197 194 189 186 187 188 187 186 187 189 190 192 191 187 185 187 188 189 189 189 190 190 191 194 193 194 196 195 195 198 200 198 199 203 201 199 199 195 194 194 195 198 196 196 196 198 203 197 191 201 199 203 223 216 201 213 221 223 221 211 222 243 247 240 244 251 253 251 257 264 266 263 262 264 265 267 271 275 279 279 277 276 278 280 280
199 200 191 185 186 188 187 185 186 187 188 188 189 186 184 186 188 190 191 192 192 191 192 195 196 196 196 196 196 197 200 202 203 205 204 204 203 200 200 198 198 199 197 199 196 196 211 209 196 207 211 206 218 220 207 214 224 229 229 222 220 228 235 237 237 241 246 246 250 256 258 256 253 254 258 263 270 274 276 278 281 283 284 285 287
182 189 189 188 188 189 187 183 181 183 184 184 185 187 186 186 189 192 191 193 194 191 192 196 197 196 197 197 198 199 200 202 205 206 206 207 206 205 205 202 202 202 199 201 200 196 212 218 204 209 217 209 212 217 212 214 223 230 232 230 233 234 236 240 240 240 242 244 247 252 254 255 254 256 260 263 265 266 269 275 280 282 284 285 285
155 152 161 172 177 179 179 177 179 182 181 179 180 183 186 187 190 193 192 193 195 194 194 197 197 196 198 197 197 200 202 202 204 206 207 208 208 209 210 207 205 205 202 203 205 201 210 217 207 206 215 216 214 216 217 215 216 226 232 229 233 238 239 241 244 246 248 251 253 256 259 259 258 258 259 261 261 260 263 271 274 275 278 282 285
163 157 157 157 155 158 165 170 175 180 179 178 179 181 187 191 191 193 194 194 197 197 198 202 201 197 200 201 199 200 203 204 206 207 207 208 209 210 212 212 209 210 208 206 206 205 208 214 211 207 212 222 222 217 221 221 214 218 230 232 233 237 239 241 245 247 249 251 252 254 258 260 260 260 259 259 264 268 269 268 269 273 277 278 281
170 173 175 170 161 159 163 165 168 173 172 175 180 182 190 195 192 194 198 197 199 202 204 208 207 202 204 204 200 199 202 204 206 207 208 209 211 211 213 214 214 215 215 214 214 213 212 214 216 214 213 223 230 224 224 229 225 221 226 231 235 237 237 241 245 247 250 251 252 252 254 257 259 260 259 258 259 261 263 263 264 266 268 270 274
178 180 183 181 176 173 173 171 168 170 171 173 179 183 190 195 194 199 203 201 202 204 206 208 208 208 211 209 203 201 202 204 204 205 206 208 209 211 213 215 215 216 217 219 219 219 220 219 221 221 219 223 229 229 228 231 231 228 229 232 237 240 242 244 247 249 251 253 255 256 257 258 257 252 254 262 262 254 255 259 261 261 263 268 272
189 190 191 192 194 193 196 200 199 195 189 184 185 187 192 194 193 199 205 204 205 205 206 207 206 207 212 212 209 210 210 210 210 210 211 210 209 211 214 216 218 217 217 219 220 221 223 224 224 225 225 227 228 230 232 234 233 230 229 230 235 240 243 244 247 250 252 254 256 259 262 264 262 257 259 269 272 266 262 264 267 269 272 275 278
194 199 202 204 209 217 224 225 222 222 216 204 199 198 196 194 192 195 200 202 203 203 205 206 204 204 209 211 213 217 217 217 218 219 219 217 214 213 214 215 218 219 219 220 220 221 222 224 227 227 228 232 233 231 232 237 240 239 232 228 232 239 244 247 249 251 254 257 258 259 261 263 265 265 266 271 273 268 264 266 271 276 278 279 281
188 193 199 207 216 223 224 219 218 223 222 213 208 203 195 191 193 198 202 202 201 201 201 201 202 204 207 209 213 217 218 218 219 221 222 223 222 220 219 219 219 219 222 223 223 224 225 224 227 230 231 235 239 237 233 234 242 246 244 238 237 241 247 253 255 256 258 261 261 262 262 263 266 267 266 271 275 269 262 263 269 275 278 279 281
170 173 177 185 195 203 208 209 210 215 217 215 210 204 196 191 192 197 200 200 199 198 198 201 205 207 207 207 209 212 214 216 219 222 224 225 224 224 223 224 223 219 221 225 225 228 230 229 228 229 231 236 242 242 240 239 242 247 249 247 244 245 247 252 255 257 259 260 261 262 262 262 267 271 270 270 272 271 270 271 272 271 273 275 276
142 145 148 157 170 181 190 197 202 206 212 213 209 204 200 199 200 201 201 200 199 197 197 202 208 211 212 214 216 217 220 226 230 234 235 234 231 228 227 228 228 226 226 227 227 227 228 231 231 229 228 233 238 239 239 241 244 248 250 250 248 248 249 251 255 256 259 261 263 265 266 265 265 268 269 266 266 269 274 276 274 273 274 275 276
133 146 153 165 185 195 194 195 198 201 205 207 205 204 203 203 204 207 209 210 208 203 201 203 209 214 216 222 227 229 234 239 241 242 244 243 240 236 234 232 233 234 233 232 232 229 227 230 230 225 223 226 230 234 236 239 243 247 249 249 248 248 249 250 252 256 261 264 264 262 263 265 265 262 260 260 261 262 266 271 274 277 279 279 279
141 159 164 173 188 192 188 188 190 191 193 194 193 196 201 201 199 203 210 214 212 210 210 210 211 212 215 222 228 230 234 237 238 237 237 238 235 233 233 234 235 237 235 233 235 235 233 231 228 225 229 230 230 234 239 240 243 247 249 250 249 249 250 250 251 253 256 258 257 256 256 261 264 259 251 252 256 259 263 268 272 275 276 276 277
130 134 140 158 174 178 180 185 189 190 189 188 188 194 202 202 199 203 208 207 200 200 207 212 210 208 214 222 224 224 228 230 230 226 222 222 222 221 224 229 231 234 234 229 230 231 229 229 228 226 230 234 233 237 243 245 247 249 251 253 252 251 252 253 252 251 250 251 255 259 262 266 268 263 255 253 257 261 264 267 269 273 275 275 275
117 113 115 124 129 133 142 153 161 163 162 170 180 187 192 190 188 192 195 191 183 179 185 193 195 195 201 209 211 213 220 224 224 220 216 215 215 213 215 222 226 230 229 223 221 223 221 225 227 220 217 226 233 240 246 250 253 252 251 252 253 252 251 254 258 258 255 255 258 261 263 264 265 266 265 263 263 265 268 270 272 275 278 279 276
110 108 106 108 110 110 112 116 119 120 122 131 147 158 163 162 162 165 167 167 164 160 159 157 152 148 153 164 174 183 196 201 195 195 201 204 206 204 205 214 220 223 225 223 223 225 226 231 232 221 214 225 236 243 249 252 254 253 252 251 250 251 251 252 261 264 260 258 260 261 261 261 264 268 270 269 269 271 271 272 274 275 277 278 276
112 112 109 109 110 107 105 108 108 106 108 115 127 137 141 140 142 146 147 146 145 144 141 133 127 126 128 137 151 157 160 158 157 166 175 174 179 187 183 184 203 213 217 222 230 231 230 237 243 231 223 229 236 241 247 254 254 252 251 245 238 242 246 240 245 260 259 255 257 260 259 259 262 268 272 273 273 273 273 273 274 274 275 275 275
116 114 110 108 106 104 109 113 109 105 108 113 118 123 122 123 128 134 136 136 137 136 133 129 125 122 121 134 147 146 144 144 141 138 136 131 125 118 110 104 101 119 140 144 163 247 235 239 247 236 228 233 242 247 249 253 252 248 246 237 228 234 239 231 230 254 258 252 252 256 257 259 263 267 271 274 275 276 276 277 277 278 279 281 282
115 112 112 113 111 110 115 112 103 103 116 124 128 128 123 121 123 125 126 129 133 134 132 132 129 120 116 131 136 130 132 143 137 120 112 113 107 102 113 128 133 121 120 127 121 110 142 201 210 212 215 218 230 240 240 241 241 237 236 235 234 243 245 226 220 251 264 253 253 255 256 259 262 266 269 273 277 279 280 281 282 283 285 287 287
118 114 116 120 116 112 111 108 103 112 127 139 145 139 135 135 133 131 132 136 141 141 133 131 133 130 126 129 130 128 133 138 132 122 114 113 112 113 126 137 131 110 108 119 118 108 102 84 66 52 359 204 213 230 232 236 246 242 241 251 248 259 258 200 191 223 237 224 243 258 261 262 264 268 272 276 281 284 285 287 288 288 291 292 293
121 119 120 119 115 110 109 110 115 127 135 145 149 143 148 153 150 149 149 147 151 152 139 135 146 150 141 136 143 157 166 165 158 145 129 129 133 134 136 130 119 114 122 118 99 101 104 83 62 41 22 18 318 295 276 259 288 301 295 298 287 276 273 211 205 224 228 232 258 279 285 281 279 281 284 286 288 290 293 297 298 299 304 306 305
127 128 128 125 121 119 119 118 122 131 136 140 144 152 164 165 164 166 164 158 159 160 154 157 165 164 156 153 159 169 179 190 187 150 123 142 137 126 141 139 124 130 155 153 124 120 133 133 127 123 115 113 30 306 308 311 312 309 304 300 286 270 268 250 242 254 261 267 281 290 294 293 293 294 296 297 298 298 298 300 301 304 311 316 307
129 129 130 129 125 123 121 119 116 115 117 120 131 156 171 172 170 171 170 168 169 168 169 173 174 169 161 154 162 176 176 179 173 154 155 171 150 149 182 167 142 169 192 170 157 162 175 171 157 150 162 175 182 237 310 319 322 326 333 332 318 297 284 283 281 276 275 280 285 287 290 296 297 299 304 307 310 308 304 306 310 311 318 317 293
123 123 130 131 127 121 118 118 115 111 113 117 123 142 144 125 120 155 179 178 172 171 173 171 170 165 154 150 166 177 168 159 157 152 159 157 145 173 191 152 145 180 198 208 211 193 173 184 197 186 192 224 232 204 220 250 268 284 332 347 333 312 297 295 295 289 291 297 299 299 306 311 309 311 316 319 324 318 308 316 321 308 306 304 290
119 118 124 124 120 120 122 126 124 120 122 122 120 132 131 120 128 170 196 185 175 176 171 156 149 152 157 169 174 166 155 153 151 157 172 164 148 140 149 187 195 185 167 151 156 204 204 191 244 216 204 241 251 236 244 260 264 250 240 247 264 278 285 289 290 290 295 297 297 304 315 317 317 322 321 317 320 307 299 309 305 291 300 306 296
131 131 133 125 120 123 129 136 136 136 145 152 156 155 143 147 179 205 215 203 188 176 156 143 144 156 165 170 164 152 148 149 150 183 204 192 174 160 156 186 209 202 188 172 158 169 185 173 188 225 206 200 224 237 252 269 274 262 256 261 271 279 285 289 292 293 295 295 297 303 305 300 302 308 299 292 289 283 291 304 302 303 314 307 294
148 149 154 156 152 151 171 180 160 171 213 229 226 204 171 177 209 215 211 208 187 148 132 128 128 151 156 141 131 153 168 156 152 192 216 210 201 192 186 200 225 218 208 199 190 190 186 174 192 228 216 210 224 237 251 266 275 276 273 272 278 283 286 291 295 297 301 308 314 311 297 289 295 298 293 289 289 293 301 305 305 313 319 307 304
162 159 170 202 219 234 280 297 294 273 262 257 250 230 211 215 223 214 206 204 181 144 130 127 123 177 169 137 112 170 173 159 159 186 193 206 218 214 216 234 253 260 250 232 221 216 206 199 221 246 238 228 233 242 254 267 276 280 279 278 282 287 291 296 299 300 304 313 316 304 295 293 297 299 297 295 298 305 308 308 311 316 313 312 319